Wind_Speed
11 12 12 12 13 13 13 13 13 14 14 15 16 18 18 20 23 26 28 31 32 34 36 39 41 43 45 48 50 52 54 57 60 63 66 69 73 77 80 83 84 83 80 76
11 11 12 12 11 11 12 12 13 13 15 16 17 19 20 22 24 27 29 31 33 35 37 39 42 44 46 49 51 53 55 58 60 63 67 70 73 77 80 82 82 80 76 73
11 10 10 10 10 10 10 12 13 13 13 15 17 18 20 21 24 27 29 31 33 36 38 40 43 45 48 50 52 54 56 58 61 64 67 71 74 77 80 81 80 78 74 71
10 10 10 9 9 9 9 10 11 13 14 14 16 17 18 21 24 26 28 31 34 36 39 41 43 46 48 51 53 55 57 59 61 65 68 71 74 77 79 80 78 75 72 70
10 10 9 8 8 8 8 9 10 11 12 14 16 17 17 21 23 26 28 31 34 37 40 42 44 47 49 52 53 55 57 60 62 65 68 71 74 77 79 79 76 73 70 68
10 10 9 8 8 7 7 8 9 10 11 12 14 17 19 21 24 26 29 32 35 38 41 43 46 48 51 53 55 57 59 61 63 66 69 72 74 77 78 77 75 71 69 67
11 10 9 9 8 8 7 7 8 9 10 12 15 17 19 22 25 27 30 33 36 39 41 44 47 50 53 55 57 59 60 62 64 67 69 72 74 76 77 76 73 70 67 65
12 10 10 10 9 8 8 8 9 10 11 13 14 16 18 21 24 27 31 34 37 40 43 46 49 52 54 57 60 61 62 63 65 68 70 72 74 76 76 75 72 69 67 65
13 12 12 11 10 10 10 10 10 11 12 13 15 17 18 22 25 28 31 35 38 41 44 47 50 53 56 59 62 64 65 65 66 68 70 72 74 75 75 74 71 68 66 64
14 14 13 13 12 12 12 12 12 13 15 16 17 20 23 25 27 29 32 35 38 42 46 49 52 54 57 60 63 66 67 67 67 69 71 72 74 75 74 73 70 67 65 63
16 16 15 15 14 14 14 14 14 16 17 19 20 21 24 26 29 31 34 37 40 43 47 51 53 56 59 61 64 67 69 69 69 69 71 72 73 74 74 72 69 67 65 63
18 18 17 17 17 17 17 16 17 17 19 20 22 23 25 27 29 32 35 38 41 44 48 51 55 57 60 62 65 67 70 71 71 70 71 72 73 74 73 71 69 66 64 63
20 20 20 19 19 19 19 19 19 20 21 22 24 26 28 29 31 33 36 39 41 45 48 52 55 58 60 63 66 68 70 72 72 71 71 72 73 73 73 71 68 65 63 62
22 22 22 22 22 22 21 22 22 23 23 24 25 26 29 32 34 36 38 41 43 46 49 52 55 58 61 63 66 68 70 73 74 73 72 72 72 72 72 70 67 65 63 61
25 24 24 24 25 25 25 24 25 26 26 27 27 28 30 32 35 37 40 42 45 47 49 52 55 58 62 64 66 68 70 73 74 73 72 72 72 72 72 70 67 64 62 61
27 27 27 27 28 29 28 26 28 28 29 29 30 31 32 34 36 38 40 43 45 48 50 52 55 58 61 64 66 68 70 72 74 74 73 72 72 72 71 70 67 64 62 60
30 31 31 31 31 32 30 28 30 31 31 32 33 34 35 36 37 40 42 44 46 49 51 53 55 58 61 64 66 68 70 72 74 74 73 72 72 71 70 69 66 64 61 59
32 33 35 35 34 35 31 31 32 33 33 35 36 37 38 39 39 41 44 46 47 50 52 53 55 57 60 63 66 67 70 71 73 74 73 72 72 71 70 69 66 63 61 59
35 36 37 38 38 38 33 33 35 37 36 37 39 40 41 42 42 42 45 47 48 50 52 54 55 57 60 63 66 67 69 71 72 74 73 72 71 70 69 68 66 63 61 59
37 38 39 40 42 42 37 37 38 40 40 40 41 42 43 44 46 45 47 48 49 51 53 54 56 57 59 62 65 67 68 70 71 73 73 72 71 70 69 68 66 63 61 58
39 40 41 42 44 44 40 40 41 42 43 43 44 45 46 47 48 49 50 50 51 52 53 55 56 57 59 61 64 66 68 69 70 72 73 72 71 70 69 67 66 63 60 58
42 43 43 44 46 44 42 41 42 44 45 46 48 49 50 50 50 51 51 52 53 53 54 56 57 57 59 60 63 65 67 68 70 71 72 71 70 69 68 67 65 63 60 58
46 45 46 48 47 44 42 41 43 45 48 49 51 52 53 53 53 53 53 54 54 54 55 56 57 57 58 60 61 64 66 67 68 69 70 70 69 68 67 66 65 63 60 58
51 49 50 51 48 43 43 43 44 46 50 51 53 55 56 56 55 55 55 55 55 55 55 56 57 58 58 59 61 63 64 66 67 68 69 69 68 67 67 65 64 63 61 58
55 56 55 54 50 48 46 46 47 50 51 53 55 56 57 58 58 58 57 56 56 56 56 56 57 58 58 59 60 62 63 64 65 66 67 68 67 66 66 65 64 62 61 58
57 57 59 58 54 57 55 53 53 54 55 56 57 58 58 59 60 60 60 59 58 58 57 57 57 58 58 59 60 61 62 63 64 64 65 66 66 65 64 63 63 62 60 58
Wind_Direction
306 312 318 323 326 329 331 333 334 338 338 338 338 339 343 338 336 335 335 335 334 333 332 331 330 329 329 328 328 328 328 327 327 328 328 329 328 328 328 328 328 328 327 327
307 314 319 323 326 327 329 330 333 338 335 338 340 341 342 341 338 338 338 337 336 335 334 333 332 331 330 330 330 330 329 329 329 330 330 331 330 330 330 330 330 330 330 330
309 314 317 320 322 324 327 329 332 337 340 341 342 345 341 342 341 341 341 340 340 338 337 336 335 334 333 332 332 332 331 331 331 332 332 332 332 333 333 333 332 332 332 332
305 308 311 314 316 320 324 327 332 336 341 343 346 349 347 345 346 346 345 345 344 343 342 341 340 338 337 335 334 334 334 333 333 334 334 335 335 335 335 335 335 334 334 334
298 298 301 304 308 314 321 325 331 336 341 345 347 348 354 351 351 350 349 348 347 347 347 346 345 343 342 340 338 337 336 336 336 336 337 337 337 337 337 338 337 337 336 336
290 289 291 293 297 305 313 322 329 333 340 343 347 350 354 355 354 353 351 351 350 350 349 348 348 346 345 344 342 340 339 339 338 338 339 339 339 339 340 340 339 339 338 338
280 281 281 283 288 294 303 314 320 327 337 346 351 352 353 354 354 354 353 353 352 351 350 349 349 349 348 347 346 344 342 341 341 340 341 340 341 341 342 342 341 341 341 341
276 273 274 275 278 284 292 303 315 327 338 343 346 348 350 352 353 353 353 353 352 352 351 350 350 350 350 349 348 347 345 344 343 342 342 342 342 343 343 343 343 343 343 343
276 272 270 270 272 279 287 295 306 317 325 330 336 342 345 349 351 352 352 352 352 352 351 351 350 350 350 350 350 349 348 346 345 344 344 344 344 345 345 345 345 345 345 345
274 272 269 270 271 275 282 291 300 309 317 326 334 338 342 345 347 348 350 350 351 351 351 351 351 350 350 350 350 350 349 348 346 345 345 345 346 346 347 346 346 346 346 346
272 271 269 269 271 275 281 287 295 304 313 321 328 334 337 340 342 344 346 347 349 350 351 351 350 350 350 350 350 350 350 349 348 347 346 347 347 347 348 348 348 348 348 348
270 270 269 269 271 274 279 285 293 301 308 315 322 328 332 335 338 340 342 344 346 347 349 350 350 349 349 349 350 350 351 350 349 348 347 348 348 348 349 349 349 349 349 350
269 269 270 270 272 275 279 284 290 297 304 311 317 323 327 330 334 336 339 340 343 345 346 347 348 348 348 349 349 350 350 351 350 349 348 348 349 349 350 350 350 350 351 351
268 268 270 272 274 274 277 282 288 294 300 305 312 317 321 325 329 333 335 337 339 342 344 345 346 347 347 348 349 349 350 350 350 350 349 349 350 350 351 351 351 351 351 352
268 268 270 272 273 275 277 281 286 291 297 301 307 311 316 320 324 327 331 333 336 338 340 342 344 345 346 347 348 348 349 350 350 350 349 349 350 350 351 352 352 352 352 352
270 270 269 270 272 275 277 282 285 289 294 298 302 307 311 315 319 322 325 329 332 334 337 339 341 342 344 345 346 347 348 349 350 350 350 349 350 351 351 352 353 353 353 353
271 272 271 271 272 274 278 281 283 287 291 295 299 303 306 311 315 318 321 325 328 330 333 336 338 339 342 344 345 346 347 348 349 350 350 350 350 351 351 352 353 353 353 354
271 272 273 274 274 275 280 281 282 284 288 292 295 299 303 307 311 314 317 321 324 327 330 332 334 337 339 341 344 344 345 347 348 349 349 349 350 351 351 352 353 354 354 354
273 273 273 275 275 277 278 280 281 283 285 289 292 296 299 302 306 310 312 316 319 322 325 329 331 334 336 339 341 343 344 346 347 348 349 349 350 351 351 352 353 354 354 354
272 273 274 275 276 278 280 280 280 282 284 287 289 292 295 299 302 306 308 312 315 319 322 325 329 331 333 336 339 341 343 344 346 347 348 349 349 350 351 352 353 354 354 355
272 273 274 276 277 279 282 283 283 284 286 287 288 291 293 296 300 303 306 309 312 316 319 322 325 328 331 333 336 339 341 343 344 346 347 348 348 349 351 352 353 354 355 355
275 275 275 275 276 280 282 282 283 283 284 286 288 290 292 294 297 300 303 306 309 312 315 318 322 325 328 330 333 336 338 341 342 344 346 347 348 349 350 351 353 354 355 355
274 276 276 276 278 281 281 282 282 282 283 284 286 288 290 292 294 297 300 303 306 309 312 315 318 322 325 327 330 333 336 338 341 342 344 346 347 348 349 351 352 353 354 355
275 275 275 276 278 280 280 280 279 279 280 282 284 286 288 290 292 295 297 300 303 306 309 312 315 318 321 324 327 330 333 336 338 340 342 344 346 347 348 350 351 353 354 355
275 276 277 278 280 279 278 278 277 277 278 280 281 284 286 288 291 293 295 298 300 303 306 309 311 314 318 321 324 327 330 333 336 338 340 343 344 346 347 349 351 352 353 354
275 277 279 280 281 280 278 276 276 277 277 278 279 281 283 286 289 291 293 296 298 300 303 305 308 311 314 317 320 324 327 330 333 336 338 341 343 344 346 348 350 352 353 354
Height
5881 5881 5879 5877 5875 5872 5870 5868 5866 5864 5862 5860 5857 5855 5852 5849 5845 5841 5838 5833 5829 5824 5819 5813 5807 5800 5794 5786 5778 5769 5760 5750 5739 5728 5716 5703 5688 5672 5655 5637 5618 5599 5581 5564
5880 5878 5876 5874 5873 5871 5869 5867 5865 5863 5860 5857 5855 5852 5849 5846 5842 5839 5834 5830 5825 5820 5815 5809 5802 5795 5787 5779 5770 5761 5751 5741 5730 5718 5705 5691 5676 5660 5642 5624 5604 5586 5568 5552
5877 5877 5874 5873 5871 5869 5867 5865 5863 5861 5859 5856 5853 5851 5847 5844 5840 5836 5831 5827 5822 5816 5810 5804 5796 5788 5780 5772 5763 5753 5743 5731 5720 5707 5694 5679 5664 5647 5630 5611 5592 5573 5556 5540
5875 5874 5872 5871 5869 5868 5866 5864 5861 5859 5856 5854 5852 5850 5846 5841 5837 5833 5828 5823 5818 5812 5805 5798 5791 5782 5774 5765 5755 5745 5734 5722 5710 5697 5683 5668 5653 5636 5618 5599 5581 5562 5545 5529
5873 5871 5870 5869 5868 5866 5864 5862 5860 5857 5855 5852 5849 5847 5845 5839 5835 5830 5825 5820 5814 5807 5800 5793 5785 5776 5767 5757 5747 5736 5725 5713 5700 5687 5672 5657 5641 5625 5607 5588 5570 5552 5535 5519
5870 5869 5868 5867 5866 5864 5862 5861 5858 5856 5853 5851 5848 5844 5841 5836 5832 5827 5822 5816 5810 5803 5795 5787 5779 5770 5761 5751 5740 5728 5716 5704 5691 5677 5662 5647 5631 5614 5596 5578 5561 5544 5527 5511
5868 5867 5866 5865 5864 5862 5861 5860 5858 5855 5852 5849 5845 5841 5838 5833 5828 5823 5818 5812 5805 5799 5791 5783 5774 5764 5754 5744 5733 5721 5708 5695 5682 5668 5653 5638 5622 5605 5587 5569 5552 5535 5520 5504
5865 5865 5864 5862 5861 5860 5858 5857 5855 5852 5849 5846 5842 5839 5836 5830 5825 5820 5814 5808 5801 5794 5786 5778 5768 5759 5748 5737 5726 5713 5700 5687 5674 5659 5645 5629 5613 5596 5578 5561 5544 5527 5512 5496
5862 5862 5861 5859 5858 5857 5855 5853 5852 5849 5846 5843 5840 5837 5832 5827 5822 5816 5810 5804 5797 5790 5781 5772 5763 5753 5742 5731 5719 5706 5693 5679 5666 5651 5637 5621 5605 5588 5571 5553 5536 5520 5505 5490
5859 5859 5858 5856 5855 5854 5853 5850 5848 5845 5842 5839 5836 5832 5828 5822 5818 5813 5806 5800 5793 5785 5776 5767 5757 5747 5736 5725 5713 5700 5686 5673 5659 5644 5629 5614 5598 5581 5564 5547 5530 5515 5499 5484
5855 5855 5855 5853 5852 5850 5849 5847 5844 5841 5838 5835 5831 5830 5823 5818 5812 5807 5801 5795 5788 5780 5771 5762 5752 5742 5731 5719 5707 5694 5680 5666 5652 5637 5623 5607 5591 5575 5558 5541 5525 5509 5494 5479
5851 5851 5850 5850 5848 5846 5845 5842 5840 5838 5834 5830 5826 5827 5819 5814 5808 5802 5796 5789 5782 5774 5766 5756 5747 5736 5725 5713 5701 5688 5674 5660 5646 5631 5616 5601 5585 5569 5553 5536 5520 5505 5490 5475
5847 5847 5846 5845 5845 5843 5840 5838 5835 5832 5829 5825 5821 5821 5813 5808 5803 5798 5792 5785 5777 5769 5760 5751 5741 5731 5720 5708 5696 5682 5669 5655 5640 5625 5611 5596 5580 5564 5548 5532 5516 5500 5486 5472
5842 5842 5841 5841 5838 5836 5835 5833 5830 5827 5824 5821 5818 5814 5808 5802 5797 5792 5786 5779 5771 5763 5755 5746 5736 5726 5715 5703 5690 5677 5664 5650 5635 5620 5605 5590 5575 5559 5543 5528 5512 5497 5483 5469
5837 5837 5835 5834 5832 5830 5829 5827 5824 5821 5818 5816 5813 5808 5804 5798 5792 5786 5779 5773 5765 5758 5749 5740 5731 5721 5709 5698 5685 5672 5659 5645 5630 5616 5601 5586 5571 5555 5539 5524 5508 5494 5479 5465
5830 5830 5829 5828 5826 5823 5823 5822 5818 5815 5812 5809 5805 5802 5798 5793 5787 5780 5774 5767 5760 5752 5744 5735 5725 5715 5704 5693 5680 5668 5654 5640 5626 5611 5596 5582 5567 5551 5536 5521 5505 5491 5477 5463
5824 5823 5821 5821 5819 5816 5817 5816 5812 5809 5806 5802 5798 5796 5791 5786 5780 5774 5767 5761 5753 5745 5737 5728 5719 5709 5699 5688 5676 5663 5650 5636 5622 5607 5592 5578 5563 5548 5533 5518 5503 5488 5475 5461
5817 5815 5813 5812 5811 5809 5813 5808 5805 5801 5799 5795 5791 5787 5783 5778 5773 5767 5760 5754 5747 5739 5731 5722 5713 5704 5693 5682 5671 5658 5645 5632 5618 5603 5589 5574 5559 5545 5530 5515 5500 5486 5472 5459
5809 5807 5805 5803 5801 5800 5803 5801 5796 5792 5791 5788 5783 5779 5774 5769 5765 5761 5753 5747 5740 5732 5724 5716 5707 5697 5687 5677 5665 5653 5640 5627 5614 5600 5585 5571 5556 5542 5527 5512 5498 5484 5470 5457
5800 5798 5797 5794 5791 5790 5795 5792 5787 5784 5782 5779 5774 5770 5766 5760 5756 5753 5746 5739 5732 5725 5717 5709 5700 5691 5681 5671 5660 5648 5636 5623 5610 5596 5582 5568 5553 5539 5524 5510 5496 5481 5468 5455
5792 5789 5788 5785 5781 5781 5784 5780 5777 5775 5773 5769 5764 5760 5756 5751 5746 5742 5736 5730 5723 5716 5709 5701 5693 5684 5675 5665 5654 5643 5631 5619 5606 5592 5579 5565 5550 5536 5522 5507 5493 5480 5466 5454
5780 5779 5778 5775 5772 5775 5772 5769 5767 5764 5760 5757 5753 5749 5745 5741 5736 5731 5725 5720 5713 5707 5700 5692 5685 5677 5668 5658 5648 5638 5626 5614 5602 5589 5575 5562 5548 5533 5519 5505 5491 5478 5465 5452
5769 5769 5766 5765 5765 5764 5761 5759 5755 5752 5749 5745 5741 5738 5733 5729 5725 5720 5715 5710 5704 5697 5691 5684 5676 5669 5660 5651 5642 5632 5621 5609 5597 5585 5572 5558 5545 5531 5517 5503 5490 5476 5463 5451
5757 5756 5753 5752 5754 5753 5750 5747 5744 5739 5735 5733 5729 5725 5721 5716 5713 5709 5704 5699 5693 5688 5681 5675 5668 5660 5653 5644 5635 5626 5615 5604 5593 5581 5568 5555 5542 5528 5515 5501 5488 5475 5462 5450
5744 5741 5740 5739 5742 5739 5738 5734 5729 5726 5723 5720 5717 5712 5708 5703 5700 5696 5692 5688 5683 5677 5672 5665 5659 5652 5644 5636 5628 5619 5609 5599 5588 5576 5564 5552 5539 5526 5512 5499 5486 5473 5460 5448
5733 5730 5726 5725 5727 5719 5719 5720 5715 5711 5709 5706 5703 5700 5696 5691 5687 5683 5679 5676 5671 5666 5661 5655 5649 5642 5635 5628 5620 5612 5603 5593 5582 5571 5560 5548 5535 5523 5510 5496 5483 5470 5458 5446